SL-14 R/B, 19791

Orbit data source: Space-Track

SL-14 R/B, 19791 is space debris in LEO originally from a launch on Fri, 10 Feb 1989 UTC launched from the Plesetsk Missile And Space Complex (PKMTR). Debris objects in space refer to the collection of defunct objects orbiting the Earth. Examples of debris include non-operational satellites, rocket bodies, and fragments generated from explosions, collisions, or faulty payload assembly.

Loading next visibility...
Identifier
19791, 1989-009G
Orbit
LEO
Country
Flag of CISCIS
Related business
Manufacturer
Yuzhnoe
Mission
Spacecraft
Bus & Motor
S5M, Unknown motor
Mass
1,600 kg wet, 1,600 kg dry
Launch date (UTC)
1989-02-10 (37 years ago)
Launch vehicle
Unknown
Launch site
Plesetsk Missile And Space Complex (PKMTR)
Object type
Payload
Rocket body
Debris
Shape & HBR
Cyl, 1.4 m
Radar Cross Section
7.351 m², Large (>1 m²)

Expand to show TLE details & history
Last TLE update: 9 hours ago

TLE from 9 hours ago
0 SL-14 R/B
1 19791U 89009G   26126.15693750  .00000009  00000-0 -92129-5 0  9994
2 19791  82.6126 158.4786 0035323  36.5561  27.2363 12.54881299705289
Epoch: 2026-05-06T03:45Z
TLE epoch observation values (Epoch: 2026-05-06T03:45:59.399Z)
Latitude
63.10453°
Longitude
-107.30526°
Altitude
1,430.402 km
Speed
7.163 km/s
True Right ascension
11h 32m 51s
True Declination
62° 58' 39"
Sunlit
Object was in daylight at epoch
Visualization orbit readout
Latitude
Unknown
Longitude
Unknown
Altitude
Unknown
Speed
Unknown
Apparent Right ascension
Unknown
Apparent Declination
Unknown
Sunlit
N/A
Visualization observer readout
Local Sidereal Time
20:15:03
Azimuth
Unknown
Elevation
Unknown
Doppler factor
Unknown
Orbital elements
Apogee altitude
1,469.095 km
Perigee altitude
1,413.853 km
Semi-major axis
7,819.611 km
Eccentricity
0.00353
Inclination
82.6126°
RAAN
158.4786°
Arg. of periapsis
36.5561°
True anomaly
27.42228°
Mean anomaly
27.2363°
Eccentric anomaly
27.32922°
Mean motion
3.13881 °/min
Orbital period
114.69 mins
BSTAR
-0.0000092129
Loading maneuver chart data...
Computing Atmospheric mass density...
Loading historical data...
Loading historical data...
Loading historical data...
Loading historical data...
Loading historical data...
Loading historical data...
Loading historical data...

Documentation

Showing up to 5 results
|